Ankeny, IA

5:40 AM CST on December 13, 2019 (GMT -0600)
Ankeny Regional

Weather History for KIKV - November, 2019

Change the Weather History Date:

Saturday, November 16, 2019

  Actual Average (KDSM) Record (KDSM)
Temperature  
Mean Temperature 40 °F -  
Max Temperature 51 °F 47 °F 76 °F (2001)
Min Temperature 30 °F 29 °F 0 °F (1959)
Degree Days  
Heating Degree Days 24    
Moisture  
Dew Point 27 °F    
Average Humidity 63    
Maximum Humidity 81    
Minimum Humidity 35    
Precipitation  
Precipitation 0.00 in - - ()
Sea Level Pressure  
Sea Level Pressure 30.16 in    
Wind  
Wind Speed 7 mph ()    
Max Wind Speed 21 mph    
Max Gust Speed 26 mph    
Visibility 10.0 miles    
Events      
Averages and records for this station are not official NWS values.
T = Trace of Precipitation, MM = Missing Value Source: Averaged Metar Reports

Daily Weather History Graph

Daily Weather History Graph

Search for Another Location

Airport or City:

Astronomy

Nov. 16, 2019 Rise Set
Actual Time 7:04 AM CST 4:53 PM CST
Civil Twilight 6:34 AM CST 5:23 PM CST
Nautical Twilight 6:00 AM CST 5:56 PM CST
Astronomical Twilight 5:27 AM CST 6:29 PM CST
Moon 8:25 PM CST (11/16) 11:00 AM CST (11/16)
Length of Visible Light 10h 48m
Length of Day
9h 48m
Waning Gibbous, 82% of the Moon is Illuminated
Nov 16
Waning Gibbous
Nov 19
Last Quarter
Nov 26
New
Dec 4
First Quarter
Dec 11
Full

Hourly Weather History & Observations

Time (CST) Temp. Windchill Dew Point Humidity Pressure Visibility Wind Dir Wind Speed Gust Speed Precip Events Conditions
12:15 AM 33.8 °F 30.8 °F 26.6 °F 75% 30.31 in 10.0 mi SSE 3.5 mph - N/A   Clear
12:55 AM 32.0 °F 27.5 °F 26.6 °F 80% 30.30 in 10.0 mi SSE 4.6 mph - N/A   Clear
1:35 AM 33.8 °F - 24.8 °F 70% 30.30 in 10.0 mi Calm Calm - N/A   Clear
1:55 AM 32.0 °F 28.7 °F 24.8 °F 75% 30.30 in 10.0 mi SSE 3.5 mph - N/A   Clear
2:15 AM 32.0 °F - 24.8 °F 75% 30.30 in 10.0 mi Calm Calm - N/A   Clear
2:35 AM 32.0 °F - 24.8 °F 75% 30.29 in 10.0 mi Calm Calm - N/A   Clear
2:55 AM 32.0 °F - 24.8 °F 75% 30.29 in 10.0 mi Calm Calm - N/A   Clear
3:15 AM 30.2 °F - 24.8 °F 80% 30.29 in 10.0 mi Calm Calm - N/A   Clear
3:35 AM 32.0 °F 28.7 °F 24.8 °F 75% 30.29 in 10.0 mi SSE 3.5 mph - N/A   Clear
3:55 AM 30.2 °F 25.4 °F 24.8 °F 80% 30.28 in 10.0 mi SSE 4.6 mph - N/A   Clear
4:35 AM 30.2 °F 25.4 °F 24.8 °F 80% 30.28 in 10.0 mi SSE 4.6 mph - N/A   Clear
4:55 AM 30.2 °F 24.3 °F 24.8 °F 80% 30.28 in 10.0 mi SSE 5.8 mph - N/A   Clear
5:15 AM 30.2 °F 23.4 °F 24.8 °F 80% 30.28 in 10.0 mi SSE 6.9 mph - N/A   Clear
5:35 AM 30.2 °F 22.6 °F 24.8 °F 80% 30.27 in 10.0 mi SE 8.1 mph - N/A   Clear
5:55 AM 30.2 °F 23.4 °F 24.8 °F 80% 30.27 in 10.0 mi SE 6.9 mph - N/A   Clear
6:15 AM 30.2 °F 23.4 °F 24.8 °F 80% 30.27 in 10.0 mi SSE 6.9 mph - N/A   Clear
6:35 AM 30.2 °F 22.6 °F 24.8 °F 80% 30.27 in 10.0 mi SSE 8.1 mph - N/A   Clear
6:55 AM 30.2 °F 23.4 °F 24.8 °F 80% 30.28 in 10.0 mi SE 6.9 mph - N/A   Clear
7:15 AM 30.2 °F 24.3 °F 24.8 °F 80% 30.28 in 10.0 mi SE 5.8 mph - N/A   Clear
7:35 AM 30.2 °F 23.4 °F 24.8 °F 80% 30.28 in 10.0 mi SE 6.9 mph - N/A   Clear
7:55 AM 32.0 °F 24.8 °F 24.8 °F 75% 30.28 in 10.0 mi SE 8.1 mph - N/A   Clear
8:15 AM 32.0 °F 24.2 °F 24.8 °F 75% 30.27 in 10.0 mi SE 9.2 mph - N/A   Clear
8:35 AM 33.8 °F 27.7 °F 26.6 °F 75% 30.27 in 10.0 mi SE 6.9 mph - N/A   Clear
8:55 AM 35.6 °F 29.9 °F 24.8 °F 65% 30.26 in 10.0 mi SSE 6.9 mph 16.1 mph N/A   Clear
9:15 AM 37.4 °F 31.4 °F 24.8 °F 60% 30.26 in 10.0 mi SSE 8.1 mph - N/A   Clear
9:35 AM 37.4 °F 29.8 °F 24.8 °F 60% 30.25 in 10.0 mi SSE 11.5 mph - N/A   Clear
9:55 AM 41.0 °F 32.8 °F 24.8 °F 53% 30.24 in 10.0 mi SSE 16.1 mph - N/A   Clear
10:35 AM 41.0 °F 31.6 °F 24.8 °F 53% 30.22 in 10.0 mi SSE 20.7 mph - N/A   Clear
10:55 AM 42.8 °F 35.1 °F 26.6 °F 53% 30.22 in 10.0 mi SSE 16.1 mph 23.0 mph N/A   Clear
11:15 AM 44.6 °F 38.8 °F 28.4 °F 53% 30.21 in 10.0 mi SSE 11.5 mph 21.9 mph N/A   Clear
11:55 AM 46.4 °F 39.2 °F 26.6 °F 46% 30.17 in 10.0 mi SSE 18.4 mph 26.5 mph N/A   Clear
12:15 PM 48.2 °F - 24.8 °F 40% 30.15 in 10.0 mi South 18.4 mph 25.3 mph N/A   Clear
12:35 PM 48.2 °F - 24.8 °F 40% 30.14 in 10.0 mi SSE 19.6 mph 26.5 mph N/A   Clear
12:55 PM 48.2 °F - 26.6 °F 43% 30.12 in 10.0 mi SSE 17.3 mph 26.5 mph N/A   Clear
1:15 PM 50.0 °F - 26.6 °F 40% 30.11 in 10.0 mi South 18.4 mph 25.3 mph N/A   Clear
1:35 PM 50.0 °F - 24.8 °F 37% 30.11 in 10.0 mi SSE 17.3 mph - N/A   Clear
1:55 PM 51.8 °F - 26.6 °F 38% 30.09 in 10.0 mi SSE 19.6 mph 26.5 mph N/A   Clear
2:15 PM 51.8 °F - 26.6 °F 38% 30.09 in 10.0 mi South 12.7 mph 21.9 mph N/A   Clear
2:35 PM 51.8 °F - 24.8 °F 35% 30.08 in 10.0 mi SSE 19.6 mph 26.5 mph N/A   Clear
2:55 PM 51.8 °F - 26.6 °F 38% 30.07 in 10.0 mi SSE 15.0 mph 21.9 mph N/A   Clear
3:15 PM 51.8 °F - 26.6 °F 38% 30.06 in 10.0 mi SSE 19.6 mph - N/A   Clear
3:35 PM 50.0 °F - 26.6 °F 40% 30.06 in 10.0 mi SSE 13.8 mph 20.7 mph N/A   Clear
3:55 PM 50.0 °F - 26.6 °F 40% 30.06 in 10.0 mi SSE 12.7 mph 18.4 mph N/A   Clear
4:15 PM 50.0 °F - 26.6 °F 40% 30.05 in 10.0 mi SSE 17.3 mph 24.2 mph N/A   Clear
4:35 PM 48.2 °F - 26.6 °F 43% 30.05 in 10.0 mi SSE 15.0 mph 20.7 mph N/A   Clear
4:55 PM 46.4 °F 41.9 °F 26.6 °F 46% 30.05 in 10.0 mi SSE 9.2 mph 15.0 mph N/A   Clear
5:15 PM 46.4 °F 41.5 °F 28.4 °F 50% 30.05 in 10.0 mi SSE 10.4 mph - N/A   Clear
5:35 PM 46.4 °F 41.9 °F 28.4 °F 50% 30.05 in 10.0 mi SSE 9.2 mph - N/A   Clear
5:55 PM 46.4 °F 41.9 °F 28.4 °F 50% 30.06 in 10.0 mi SSE 9.2 mph - N/A   Clear
6:15 PM 46.4 °F 42.4 °F 28.4 °F 50% 30.06 in 10.0 mi SSE 8.1 mph 15.0 mph N/A   Clear
6:35 PM 44.6 °F 40.2 °F 28.4 °F 53% 30.06 in 10.0 mi SE 8.1 mph - N/A   Clear
6:55 PM 44.6 °F 39.2 °F 30.2 °F 57% 30.06 in 10.0 mi SE 10.4 mph - N/A   Clear
7:15 PM 42.8 °F 37.5 °F 30.2 °F 61% 30.05 in 10.0 mi SSE 9.2 mph 15.0 mph N/A   Clear
7:35 PM 42.8 °F 37.0 °F 32.0 °F 66% 30.05 in 10.0 mi SSE 10.4 mph - N/A   Clear
7:55 PM 42.8 °F 36.6 °F 32.0 °F 66% 30.05 in 10.0 mi SSE 11.5 mph - N/A   Clear
8:15 PM 42.8 °F 37.5 °F 32.0 °F 66% 30.06 in 10.0 mi South 9.2 mph - N/A   Clear
8:35 PM 42.8 °F 37.0 °F 32.0 °F 66% 30.07 in 10.0 mi South 10.4 mph - N/A   Clear
8:55 PM 42.8 °F 38.0 °F 32.0 °F 66% 30.07 in 10.0 mi South 8.1 mph - N/A   Partly Cloudy
9:15 PM 42.8 °F 37.5 °F 33.8 °F 70% 30.07 in 10.0 mi SSE 9.2 mph - N/A   Partly Cloudy
9:35 PM 41.0 °F 37.1 °F 33.8 °F 76% 30.08 in 10.0 mi SSE 5.8 mph - N/A   Partly Cloudy
9:55 PM 41.0 °F 36.4 °F 33.8 °F 76% 30.07 in 10.0 mi SSE 6.9 mph - N/A   Clear
10:15 PM 39.2 °F 34.2 °F 33.8 °F 81% 30.06 in 10.0 mi SSE 6.9 mph - N/A   Clear
10:35 PM 39.2 °F 34.2 °F 33.8 °F 81% 30.06 in 10.0 mi SSE 6.9 mph - N/A   Clear
10:55 PM 39.2 °F 34.2 °F 33.8 °F 81% 30.05 in - SSE 6.9 mph - N/A   Clear
11:15 PM 39.2 °F 33.0 °F 33.8 °F 81% 30.05 in 10.0 mi SSE 9.2 mph - N/A   Clear
11:35 PM 39.2 °F 32.5 °F 33.8 °F 81% 30.05 in 10.0 mi SSE 10.4 mph - N/A   Clear
11:55 PM 39.2 °F 34.2 °F 33.8 °F 81% 30.04 in 10.0 mi SSE 6.9 mph - N/A   Clear